STARLINK-5703 (55593 NORAD) Tracking and Keplerian Element Data

This shows tracking and keplerian element data for the satellite.

Feedback or suggestion? Click here.




ElementValue
Catalog55593
NameSTARLINK-5703
Epoch Orbit130
Epoch Day84.91667824
Epoch Year2023
RAAN111.8308
Inclination42.9971
Eccentricity0.0001417
Argument of Perigee262.0459
Mean Anonmoly85.2699
Mean Motion15.08512261
Decay Rate-0.01162379
L11 55593U 23020AA 23084.91667824 -.01162379 00000+0 -79705-1 0 9993
L22 55593 42.9971 111.8308 0001417 262.0459 85.2699 15.08512261 1308



Live tracking and technical data element details for STARLINK-5703 (NORAD 55593). STARLINK-5703 can be tracked NOW for your location showing map with azimuth and elevation plus other details from your city location.







IsCatalogInMostPopularTable: catalog: 55593, numindb: -1

Insert: records affected: 1


GetName: 55593 STARLINK-5703

Hit Count: inserted at: Tue, 28 Mar 2023 02:06:35 GMT